CAPE
0 0 0 0 0 0 0 0 0 0 0 0 0 2 9 15 6 0 2 2 70 8 0 0 0 7 391 555 413 248 210 175 135 98 52 16 5 5 2 0 24 22 12
0 0 0 0 0 0 0 0 0 0 0 0 0 1 4 6 5 0 0 0 0 0 0 0 0 294 748 464 192 99 1 196 99 48 41 7 0 0 0 17 29 14 12
0 0 0 0 0 0 0 0 0 0 0 0 0 1 1 3 13 9 1 0 0 0 0 127 581 717 576 280 113 122 85 81 81 20 15 0 0 0 9 37 14 11 5
0 0 0 0 0 0 0 0 0 0 0 0 0 2 2 2 5 10 8 0 0 0 5 286 337 295 547 216 12 163 172 87 53 27 4 3 0 0 35 24 10 3 5
0 0 0 0 0 0 0 0 0 0 0 0 0 2 2 3 1 1 0 3 8 4 0 44 86 95 101 50 95 190 110 39 40 13 6 0 0 5 46 20 5 3 1
0 0 0 0 0 0 0 0 0 0 0 0 0 0 2 3 1 0 2 1 9 5 3 16 92 82 74 86 100 98 43 44 12 8 0 1 7 30 32 13 6 4 0
0 0 0 0 0 0 0 0 0 0 0 0 0 0 0 1 3 1 0 0 0 2 2 4 17 27 28 69 82 79 55 36 29 14 7 0 5 41 22 12 11 4 5
0 0 0 0 0 0 0 0 0 0 0 0 0 0 0 0 1 3 3 1 2 1 1 0 1 22 14 35 27 33 46 30 24 24 4 2 10 28 13 22 19 17 10
0 0 0 0 0 0 0 0 0 0 0 0 0 0 0 0 1 2 4 3 2 1 1 2 2 1 13 9 19 31 31 28 17 7 0 0 15 30 30 24 20 1 12
0 0 0 0 0 0 0 0 0 0 0 0 0 0 0 0 0 1 2 3 3 2 3 2 2 2 0 0 0 0 0 0 0 0 3 7 38 30 20 15 2 7 32
0 0 0 0 0 0 0 0 0 0 0 0 0 0 0 0 0 0 1 3 1 2 3 3 2 2 0 0 0 0 0 0 0 0 1 23 35 20 17 9 12 10 10
0 0 0 0 0 0 0 0 0 0 0 0 0 0 0 0 0 0 1 2 2 5 3 1 0 0 0 0 0 0 0 0 0 0 4 17 19 18 26 16 12 1 0
0 0 0 0 0 0 0 0 0 0 0 0 0 0 0 0 0 0 0 1 0 0 1 3 1 1 0 0 0 0 0 0 0 0 0 8 21 24 16 20 5 3 4
0 0 0 0 0 0 0 0 0 0 0 0 0 0 0 0 0 0 0 0 0 0 1 1 1 0 0 0 0 0 0 0 0 0 4 4 5 4 7 2 0 0 0
0 0 0 0 0 0 0 0 0 0 0 0 0 0 0 0 0 0 0 0 0 0 0 0 0 2 0 0 0 0 0 0 0 0 0 0 0 0 0 0 0 0 0
0 0 0 0 0 0 0 0 0 0 0 0 0 0 0 0 0 0 0 0 0 0 0 1 0 1 0 0 0 0 0 0 0 0 0 0 0 0 0 0 0 0 0
0 0 0 0 0 0 0 0 0 0 0 0 0 0 0 0 0 0 0 0 0 0 0 1 1 1 0 0 0 0 0 0 0 0 0 0 0 0 0 0 0 0 0
0 0 0 0 0 0 0 0 0 0 0 0 0 0 0 0 0 0 0 0 0 0 0 0 1 1 0 0 0 0 0 0 0 0 0 0 0 0 0 0 0 0 0
0 0 0 0 0 0 0 0 0 0 0 0 0 0 0 0 0 0 0 0 0 0 0 0 0 1 2 0 0 0 0 0 0 0 0 0 0 0 0 0 0 0 0
0 0 0 0 0 0 0 0 0 0 0 0 0 0 0 0 0 0 0 0 0 0 0 0 0 0 0 0 0 0 0 0 0 0 0 0 0 0 0 0 0 0 0
0 0 0 0 0 0 0 0 0 0 0 0 0 0 0 0 0 0 0 0 0 0 0 0 0 0 0 0 0 0 0 0 0 0 0 0 0 0 0 0 0 0 0
0 0 0 0 0 0 0 0 0 0 0 0 0 0 0 0 0 0 0 0 0 0 0 0 0 0 0 0 0 0 0 0 0 0 0 0 0 0 0 0 0 0 0
0 0 0 0 0 0 0 0 0 0 0 0 0 0 0 0 0 0 0 0 0 0 0 0 0 0 0 0 0 0 0 0 0 0 0 0 0 0 0 0 0 0 0
0 0 0 0 0 0 0 0 0 0 0 0 0 0 0 0 0 0 0 0 0 0 0 0 0 0 0 0 0 0 0 0 0 0 0 0 0 0 0 0 0 0 0
0 0 0 0 0 0 0 0 0 0 0 0 0 0 0 0 0 0 0 0 0 0 0 0 0 0 0 0 0 0 0 0 0 0 0 0 0 0 0 0 0 0 0
0 0 0 0 0 0 0 0 0 0 0 0 0 0 0 0 0 0 0 0 0 0 0 0 0 0 0 0 0 0 0 0 1 0 0 0 0 0 0 0 0 0 0
CIN
0 0 0 0 0 0 0 0 0 0 0 0 0 -18 -9 -1 -1 0 -7 -94 -42 -79 0 0 0 -8 -19 -9 -55 -11 -13 0 0 0 0 0 -1 0 -1 0 0 0 -1
0 0 0 0 0 0 0 0 0 0 0 0 0 -3 -4 -1 -3 0 0 0 0 -17 0 0 0 -37 -1 -24 -68 -74 -51 0 0 -1 0 0 0 0 0 0 0 0 -1
0 0 0 0 0 0 0 0 0 -1 0 0 0 -1 0 0 -1 0 0 0 0 0 0 -40 -1 0 0 -7 -16 -12 -15 -1 0 -2 -6 0 0 0 0 0 -1 0 -1
0 0 0 0 0 0 0 0 0 0 0 0 0 0 0 -1 0 -1 0 0 0 -3 -25 -2 -1 -9 -2 -14 -24 -4 0 0 -1 -1 -1 -1 0 0 0 -1 -1 -3 0
0 0 0 0 0 0 0 0 0 0 -1 0 0 0 0 0 0 0 0 -16 -11 -22 -8 -16 -13 -16 -13 -15 -3 0 0 -2 -1 -5 -2 -8 0 0 0 0 -3 -1 -1
0 0 0 0 0 0 0 0 0 0 0 0 0 0 0 0 0 0 0 0 -25 -14 -12 -27 -9 -2 -2 -1 -7 -1 -1 -8 -5 0 -1 -7 -3 0 0 -1 -1 -1 0
0 0 0 0 0 0 0 0 0 0 0 0 0 0 0 0 0 0 0 0 0 0 -26 -31 -11 -3 -5 0 0 0 0 -6 -3 0 0 0 0 0 0 -1 -4 0 -1
0 0 0 0 0 0 0 0 0 0 0 0 0 0 0 0 0 0 0 0 0 0 0 0 -1 -5 -6 0 -2 -1 -1 -1 0 0 -10 0 -1 0 -1 -1 0 -1 0
0 0 0 0 0 0 0 0 0 0 0 0 0 0 0 -1 0 0 0 0 0 0 0 0 0 0 -1 -2 -11 -6 -4 -5 -7 -18 0 0 -1 0 0 -1 -2 -3 0
0 0 0 0 0 0 0 0 0 0 0 0 0 0 0 0 0 0 0 0 0 0 0 0 0 0 0 0 0 0 0 0 0 0 -1 0 0 0 -1 -4 -4 -9 -1
0 0 0 0 0 0 0 0 0 0 0 0 0 0 0 0 0 0 0 0 0 0 0 0 0 0 0 0 0 0 0 0 0 0 -2 -2 -1 0 0 -1 -7 -10 -7
0 0 0 0 0 0 0 0 0 0 0 0 0 0 0 0 0 0 0 0 0 0 0 0 0 0 0 0 0 0 0 0 0 0 -8 -4 -5 -2 -1 -1 -8 -20 -23
0 0 0 0 0 0 0 0 0 0 0 0 0 0 0 0 0 0 0 0 0 0 0 0 0 0 0 0 0 0 0 0 0 0 0 -11 -4 -4 -4 -3 -3 0 0
0 0 0 0 0 0 0 0 0 0 0 0 0 0 0 0 0 0 0 0 0 0 0 0 0 0 0 0 0 0 0 0 0 0 -51 -28 -13 -11 -21 -4 0 0 -1
0 0 0 0 0 0 0 0 0 0 0 0 0 0 0 0 0 0 0 0 0 0 0 0 0 0 0 0 0 0 0 0 0 0 0 0 0 0 0 0 0 0 0
0 0 0 0 0 0 0 0 0 0 0 0 0 0 0 0 0 0 0 0 0 0 0 0 0 0 0 0 0 0 0 0 0 0 0 0 0 0 0 0 0 0 0
0 0 0 0 0 0 0 0 0 0 0 0 0 0 0 0 0 0 0 0 0 0 0 0 0 0 0 0 0 0 0 0 0 0 0 0 0 0 0 0 0 0 0
0 0 0 0 0 0 0 0 0 0 0 0 0 0 0 0 0 0 0 0 0 0 0 0 0 0 0 0 0 0 0 0 0 0 0 0 0 0 0 0 0 0 0
0 0 0 0 0 0 0 0 0 0 0 0 0 0 0 0 0 0 0 0 0 0 0 0 0 0 0 0 0 0 0 0 0 0 0 0 0 0 0 0 0 0 0
0 0 0 0 0 0 0 0 0 0 0 0 0 0 0 0 0 0 0 0 0 0 0 0 0 0 0 0 0 0 0 0 0 0 0 0 0 0 0 0 0 0 0
0 0 0 0 0 0 0 -2 0 -4 0 0 0 0 0 0 0 0 0 0 0 0 0 0 0 0 0 0 0 0 0 0 0 0 0 0 0 0 0 0 0 0 0
0 0 0 0 0 0 0 0 0 0 -3 0 0 0 0 0 0 0 0 0 0 0 0 0 0 0 0 0 0 0 0 0 0 0 0 0 0 0 0 0 0 0 0
0 0 0 0 0 0 0 0 0 0 0 0 0 0 0 0 0 0 0 0 0 0 0 0 0 0 0 0 0 0 0 0 0 0 0 0 0 0 0 0 0 0 0
0 0 0 0 0 0 0 0 0 0 0 0 0 0 0 0 0 0 0 0 0 0 0 0 0 0 0 0 0 0 0 0 0 0 0 0 0 0 0 0 0 0 0
0 0 0 0 0 0 0 0 0 0 0 0 0 0 0 0 0 0 0 0 0 0 0 0 0 0 0 0 0 0 0 0 0 0 0 0 0 0 0 0 0 0 0
0 0 0 0 0 0 0 0 0 0 0 0 0 0 0 0 0 0 0 0 0 0 0 0 0 0 0 0 0 0 0 0 0 0 0 0 0 0 0 0 0 0 0
Wind_Speed
21 22 22 22 23 23 25 29 31 32 32 32 30 31 32 30 25 23 17 8 10 15 16 19 20 17 14 6 9 3 1 15 17 16 16 17 15 15 13 14 16 15 14
21 22 22 22 23 24 25 28 31 31 31 31 31 31 32 31 28 20 15 11 12 12 14 19 19 17 8 1 2 6 4 10 16 20 22 20 17 17 15 14 16 15 15
20 21 22 22 22 23 24 27 30 32 32 31 32 32 32 29 29 19 14 15 14 14 14 16 14 8 4 4 4 11 17 14 24 25 21 19 18 18 17 17 15 15 16
19 20 21 22 21 23 24 26 29 32 32 33 34 33 32 29 29 24 16 17 18 15 15 16 6 3 14 22 14 14 19 20 20 20 20 19 16 17 16 17 16 16 16
18 19 21 22 21 23 24 25 28 30 32 32 33 36 31 33 32 26 22 14 12 16 16 14 11 6 19 19 22 24 22 26 22 18 17 18 17 15 17 17 17 16 15
16 18 20 21 21 22 23 23 26 28 30 32 33 35 32 30 32 31 24 19 16 14 14 13 13 11 16 27 33 28 27 21 18 19 20 20 19 18 17 16 16 14 15
15 17 19 20 20 21 22 21 22 24 25 24 27 30 33 20 30 34 28 19 14 12 10 9 13 17 31 28 28 23 24 23 24 22 20 18 18 18 17 16 15 15 16
13 16 17 19 19 20 21 22 21 20 22 22 21 23 25 21 13 22 9 17 14 8 4 4 7 8 23 25 26 27 26 24 20 19 17 18 19 18 17 17 16 15 16
12 14 16 17 18 18 20 21 20 20 21 24 21 20 22 25 24 9 12 14 7 4 1 3 7 10 14 17 21 21 21 21 20 17 16 17 17 18 18 17 17 16 16
10 12 14 16 17 17 19 20 20 19 19 22 24 24 24 25 26 27 12 22 16 6 1 4 7 12 15 15 21 21 19 18 18 16 15 17 18 19 17 17 17 18 17
9 11 13 14 15 16 18 19 20 20 20 22 23 24 24 23 23 27 25 15 18 5 3 8 10 8 8 11 13 16 18 19 17 16 15 15 16 16 17 17 18 19 18
7 9 11 12 14 15 16 17 19 19 20 21 21 21 21 23 26 21 22 20 16 7 15 14 14 8 7 9 16 18 18 19 18 18 17 17 17 16 17 18 18 18 19
5 7 9 11 12 14 15 16 17 18 18 19 20 19 19 22 21 24 24 20 19 10 10 7 8 7 8 12 14 16 18 18 18 18 18 17 16 15 16 16 17 18 18
4 6 8 10 11 13 14 15 16 17 18 18 18 18 18 19 21 22 21 24 21 14 10 9 10 9 11 12 14 15 16 17 18 18 19 18 17 15 15 15 16 17 17
2 4 6 8 10 12 13 14 15 15 16 18 18 18 17 17 18 20 20 20 19 16 15 8 8 10 12 13 13 15 16 16 16 17 17 16 15 14 13 14 15 16 17
1 3 5 7 9 10 11 13 14 14 15 16 18 18 17 16 16 15 15 15 17 20 14 12 11 11 11 12 14 15 16 16 16 16 16 17 15 15 14 14 15 15 16
2 3 4 6 7 9 10 11 12 13 13 15 16 18 18 16 14 13 12 14 15 15 16 13 13 11 11 12 12 13 14 16 16 16 16 16 14 14 14 14 15 15 15
3 4 3 4 6 8 9 10 10 11 12 14 16 17 17 16 13 10 11 12 13 14 15 14 13 11 10 10 10 11 13 15 15 15 15 15 14 14 14 15 15 15 16
5 3 2 3 5 7 7 8 8 9 11 12 15 16 16 15 12 10 9 10 11 12 11 12 12 11 9 8 8 10 12 13 14 15 15 15 15 14 14 15 15 16 16
6 4 3 3 4 5 6 7 8 8 9 11 12 12 13 12 10 9 8 9 10 10 11 11 9 9 8 7 7 7 10 12 12 14 15 15 15 15 14 14 14 14 14
7 6 4 2 3 3 4 6 7 7 7 8 9 10 10 11 9 9 9 8 9 8 8 8 7 7 7 5 4 5 8 11 12 11 12 12 14 15 13 13 13 13 13
7 6 5 3 2 3 3 5 6 7 6 7 7 8 9 9 9 8 7 6 7 8 8 7 6 5 5 3 3 2 5 8 5 11 11 11 12 10 11 12 11 10 11
8 8 6 4 3 1 2 4 5 6 5 6 7 8 8 8 8 7 6 6 6 5 6 7 5 5 4 2 2 2 0 5 11 14 11 15 11 9 9 10 9 8 9
10 9 7 5 4 3 0 2 4 5 5 5 6 7 8 7 7 6 5 4 5 5 5 6 5 4 5 4 3 1 1 6 15 17 12 17 14 14 16 9 7 7 8
12 10 9 8 7 5 2 2 2 4 5 5 6 6 6 5 6 6 5 4 3 4 3 5 6 7 7 5 4 4 2 3 3 14 10 14 16 17 16 14 12 9 7
13 12 11 10 8 7 4 2 1 2 4 4 4 5 5 5 7 8 7 5 5 4 2 5 9 9 8 6 3 4 4 2 6 9 12 10 13 14 16 15 17 13 9
Wind_Direction
57 60 58 58 57 55 52 45 43 46 51 50 53 54 55 61 76 88 127 184 191 195 204 207 209 223 242 251 256 258 248 133 122 111 99 105 89 80 71 69 71 75 58
58 57 58 58 58 57 56 50 49 50 56 57 59 62 61 68 80 104 137 166 177 186 193 194 203 219 242 168 31 109 303 85 107 108 104 99 83 76 71 67 80 69 56
55 56 58 58 58 58 59 54 51 53 59 61 63 67 69 76 85 105 129 147 162 170 178 186 197 214 238 90 60 83 94 88 103 106 100 89 80 77 72 80 74 64 56
55 55 55 56 58 57 62 57 56 55 61 64 66 69 74 83 91 102 120 137 146 158 171 171 163 84 79 96 78 94 98 106 111 103 96 85 74 72 75 80 71 61 54
53 52 52 53 58 57 61 66 59 60 61 68 70 70 81 83 94 105 114 125 143 153 160 165 173 165 85 82 90 106 102 104 99 93 85 79 77 68 83 79 70 60 44
47 47 52 51 56 58 60 71 66 65 65 72 73 74 84 93 96 103 113 122 132 146 158 165 170 167 69 87 87 94 98 94 91 88 84 80 73 78 81 73 63 51 41
43 48 51 51 57 54 59 72 76 71 69 81 84 81 81 102 99 99 111 126 136 142 149 169 176 172 105 90 89 92 90 89 89 87 82 74 73 81 80 67 60 49 44
45 50 52 51 57 57 57 66 76 78 68 74 83 91 93 107 121 114 134 135 143 144 126 164 191 70 78 82 90 93 89 87 81 78 70 74 80 82 80 72 63 47 37
48 50 50 51 54 58 58 61 68 76 73 55 75 93 96 99 120 152 133 31 34 155 45 18 90 78 69 76 77 76 74 76 75 68 61 69 80 84 82 72 58 42 40
48 49 51 53 51 55 49 51 56 70 78 64 61 66 86 107 107 94 21 45 38 23 109 52 73 78 80 71 75 77 70 69 70 65 64 80 83 87 74 66 58 49 48
47 47 51 53 50 53 49 47 45 56 69 67 59 70 70 62 73 118 76 46 45 22 46 59 75 71 66 48 47 50 56 59 52 53 62 66 79 75 74 69 64 58 45
47 48 51 53 51 53 51 46 45 51 61 65 62 66 80 90 97 72 74 68 59 60 57 60 56 42 28 33 44 51 55 55 57 55 51 68 76 76 81 76 67 57 51
50 59 52 53 51 52 50 48 44 49 61 66 60 58 65 87 89 90 86 72 69 43 41 26 19 18 19 30 36 44 49 51 59 57 57 58 66 73 77 67 59 52 51
75 65 50 52 52 48 48 50 46 44 57 64 66 63 68 82 94 95 94 97 81 57 31 19 9 4 14 25 33 41 44 54 55 53 53 55 59 62 61 56 48 45 37
62 66 56 56 57 53 48 51 46 47 49 61 71 74 73 83 85 91 87 84 90 86 74 356 7 350 20 28 32 42 45 47 48 48 46 44 46 47 43 39 37 32 29
103 83 63 60 60 51 49 51 42 45 49 55 76 80 82 85 87 84 75 58 72 84 65 68 47 41 31 36 34 44 41 39 41 40 41 46 49 50 45 35 14 18 17
159 120 82 69 67 58 53 52 44 49 52 61 73 85 93 91 89 80 62 50 63 56 81 81 75 57 46 48 37 32 28 32 29 32 36 41 36 45 28 28 22 24 29
176 144 107 78 72 62 56 56 49 49 62 76 87 91 96 98 88 69 50 48 50 59 82 94 91 77 60 41 34 32 19 11 16 16 28 28 26 29 26 32 34 33 30
184 166 132 93 77 73 58 47 46 54 70 87 98 105 103 105 94 74 38 38 39 48 69 81 92 82 61 39 21 5 1 360 5 9 11 14 14 19 31 36 36 31 32
187 183 159 116 90 66 53 47 51 58 72 90 102 102 107 105 101 83 57 29 26 37 60 64 66 81 58 34 7 2 356 353 359 356 355 2 2 7 14 21 32 33 34
202 176 171 142 100 64 46 51 60 69 71 78 93 101 105 109 99 93 77 54 42 32 32 38 50 59 77 64 86 6 4 348 346 353 354 357 351 350 8 13 15 20 21
210 195 172 174 153 90 57 45 52 66 72 81 94 98 103 103 106 101 76 63 60 68 67 51 53 94 109 68 56 76 10 355 1 341 344 344 349 352 353 358 6 13 11
203 193 207 192 159 120 84 60 56 62 72 76 95 107 116 110 113 107 89 81 83 60 73 76 91 103 79 87 90 113 53 341 334 335 340 331 339 337 340 342 349 357 356
197 207 211 202 219 253 249 58 64 59 72 74 96 109 123 122 123 118 104 88 90 104 80 60 60 65 26 45 150 175 279 334 323 323 332 327 343 337 336 337 336 341 344
222 224 225 227 235 244 230 119 68 44 75 79 79 93 110 113 128 131 130 123 100 130 33 37 36 31 20 28 38 20 344 339 306 324 328 330 330 333 338 341 344 336 335
227 230 233 237 237 247 247 220 102 55 65 75 50 62 91 100 134 146 142 139 147 147 42 4 347 1 12 25 47 4 1 310 337 344 331 333 334 337 341 349 352 1 360